Location: Bailleul
(50.3375°N, 2.8513°E)
Time: 13:48:01
(UTC+00:00)

Terra - Pass Details

Date: 30 July 2021
Orbit: 701 x 703 km, 98.2° (Epoch: 28 September)

Event Time Altitude Azimuth Distance (km) Brightness Sun altitude
Exits shadow 23:09:44 - 239° (WSW) 2,232 4.2 -20.7°
Reaches altitude 10° 23:10:02 10° 242° (WSW) 2,171 4.2 -20.7°
Maximum altitude 23:12:27 14° 273° (W) 1,927 4.2 -20.8°
Drops below altitude 10° 23:14:53 10° 304° (NW) 2,181 4.9 -20.8°
Sets 23:18:18 0° 330° (NNW) 3,106 6.4 -20.9°
